Home > Weather > Delémont > Past weeks

Flag for Switzerland Weather for the Past 2 Weeks in Delémont, Jura, Switzerland

Now
44 °F

Quite cool.


Feels Like: 42 °F
Forecast: 44 / 59 °F
Wind: 5 mph from South

Location: Grenchen

Current Time: May 1, 2016 at 12:10:44 PM

Latest Report: May 1, 2016 at 11:00 AM


Visibility: N/A

Pressure: 30.10 "Hg

Humidity: 87%

Dew Point: 41 °F

Location of DelémontLocation

Historic Weather in Delémont — Graph

°F

Delémont Temperature Yesterday

Maximum temperature yesterday: 60 °F (at 3:00 PM)
Minimum temperature yesterday: 45 °F (at 11:00 PM)
Average temperature yesterday: 51 °F

High & Low Weather Summary for the Past Weeks

 TemperatureHumidityPressure
High70 °F (Apr 21, 5:00 PM)100% (Apr 29, 6:00 AM)30.36 "Hg (Apr 29, 6:00 AM)
Low28 °F (Apr 28, 7:00 AM)38% (Apr 28, 3:00 PM)29.66 "Hg (Apr 16, 8:00 PM)
Average48 °F74%30.01 "Hg
* Reported Apr 16 11:00 AM — May 1 11:00 AM, Delémont, Weather by CustomWeather, © 2016

Note: Actual official high and low records may vary slightly from our data, if they occured in-between our weather recording intervals... More about our weather records

Advertising

Delémont Weather History for the Previous 24 Hours

Scroll right to see more
 ConditionsComfort  
Time TempWeatherWind HumidityBarometerVisibility
11:00 AM
Sun, May 1
44 °FQuite cool.5 mph87%30.10 "HgN/A
9:00 AM42 °FQuite cool.7 mph92%30.07 "HgN/A
8:00 AM41 °FQuite cool.7 mph97%30.07 "HgN/A
7:00 AM40 °FQuite cool.5 mph97%30.05 "HgN/A
6:00 AM40 °FQuite cool.7 mph97%30.03 "HgN/A
5:00 AM41 °FQuite cool.5 mph97%30.03 "HgN/A
3:00 AM42 °FQuite cool.9 mph97%30.03 "HgN/A
2:00 AM42 °FQuite cool.8 mph97%30.04 "HgN/A
1:00 AM43 °FQuite cool.8 mph97%30.04 "HgN/A
12:00 AM43 °FQuite cool.12 mph97%30.03 "HgN/A
11:00 PM
Sat, Apr 30
45 °FCool.5 mph97%30.03 "HgN/A
10:00 PM45 °FCool.2 mph97%30.03 "HgN/A
9:00 PM46 °FCool.6 mph97%30.03 "HgN/A
8:00 PM47 °FCool.3 mph97%30.01 "HgN/A
7:40 PM46 °FCool.5 mph97%30.02 "HgN/A
7:00 PM46 °FCool.7 mph96%30.02 "HgN/A
6:00 PM48 °FCool.12 mph91%30.00 "HgN/A
5:00 PM53 °FCool.12 mph70%29.96 "HgN/A
4:00 PM56 °FRefreshingly cool.16 mph50%29.91 "HgN/A
3:00 PM60 °FRefreshingly cool.6 mph42%29.90 "HgN/A
2:00 PM60 °FRefreshingly cool.6 mph49%29.92 "HgN/A
1:00 PM58 °FRefreshingly cool.5 mph48%29.95 "HgN/A
Weather by CustomWeather, © 2016

See weather overviewHow to use our weather pages